This is the latest recevied weather packets stored in our database for station/object DK4DO-10. If no packets are shown the sender has not sent any weather packets the latest 10 day(s).
| Time | Temp. | Humidity | Pressure | Rain* | Wind** | Luminosity | Snow |
|---|---|---|---|---|---|---|---|
| 1777592574 | 14.44° C | 24% | 1021.7 hPa | - | - | - | - |
| 1777591974 | 14.44° C | 25% | 1021.6 hPa | - | - | - | - |
| 1777591374 | 14.44° C | 25% | 1021.6 hPa | - | - | - | - |
| 1777590773 | 15° C | 24% | 1021.6 hPa | - | - | - | - |
| 1777590173 | 14.44° C | 25% | 1021.7 hPa | - | - | - | - |
| 1777589573 | 15° C | 25% | 1021.6 hPa | - | - | - | - |
| 1777588973 | 15° C | 24% | 1021.6 hPa | - | - | - | - |
| 1777588372 | 15° C | 24% | 1021.5 hPa | - | - | - | - |
| 1777587772 | 15° C | 24% | 1021.6 hPa | - | - | - | - |
| 1777587172 | 15° C | 24% | 1021.5 hPa | - | - | - | - |
| 1777586572 | 15.56° C | 23% | 1021.6 hPa | - | - | - | - |
| 1777585972 | 15.56° C | 23% | 1021.7 hPa | - | - | - | - |
| 1777585371 | 16.11° C | 23% | 1021.8 hPa | - | - | - | - |
| 1777584771 | 16.11° C | 22% | 1021.7 hPa | - | - | - | - |
| 1777584171 | 16.11° C | 22% | 1021.8 hPa | - | - | - | - |
| 1777583571 | 15.56° C | 23% | 1021.8 hPa | - | - | - | - |
| 1777582970 | 15.56° C | 23% | 1021.8 hPa | - | - | - | - |
| 1777582370 | 15.56° C | 22% | 1021.7 hPa | - | - | - | - |
| 1777581770 | 16.11° C | 23% | 1021.7 hPa | - | - | - | - |
| 1777581170 | 16.67° C | 21% | 1021.7 hPa | - | - | - | - |
| 1777580569 | 17.22° C | 21% | 1021.5 hPa | - | - | - | - |
| 1777579969 | 17.78° C | 20% | 1021.5 hPa | - | - | - | - |
| 1777579369 | 17.78° C | 19% | 1021.4 hPa | - | - | - | - |
| 1777578769 | 18.33° C | 20% | 1021.3 hPa | - | - | - | - |
| 1777578169 | 18.33° C | 19% | 1021.3 hPa | - | - | - | - |
* Rain since midnight (hover to see other rain measurements)
** Current wind speed in m/s (hover to see current wind gust speed)